Regional Weather Roundup
Issued by NWS

Home | Current Version | Previous Version | Text Only | Print | Product List | Glossary Off
Versions: 1 2 3 4 5 6 7 8 9 10 11 12 13 14 15 16 17 18 19 20 21 22 23 24 25 26 27 28 29 30 31 32 33 34 35 36 37 38 39 40 41 42 43 44 45 46 47 48 49 50

000
ASUS43 KMPX 080710
RWRMN
WEATHER ROUNDUP FOR MINNESOTA
NATIONAL WEATHER SERVICE TWIN CITIES/CHANHASSEN MN
100 AM CST THU DEC 08 2016


NOTE: "FAIR" INDICATES FEW OR NO CLOUDS BELOW 12,000 FEET WITH NO
SIGNIFICANT WEATHER AND/OR OBSTRUCTIONS TO VISIBILITY. N/A MEANS
CURRENT SKY AND/OR WEATHER CONDITIONS ARE NOT AVAILABLE.

MNZ060>063-068>070-080800-
   Twin Cities Metro

CITY           SKY/WX    TMP DP  RH WIND       PRES   REMARKS
TWIN CITIES    FLURRIES  16  10  77 W13G24    30.15S WCI   2
ST PAUL        FLURRIES  16  11  80 W9        30.17R WCI   4
CRYSTAL        FLURRIES  16   8  71 W15       30.14R WCI   1
BLAINE         FLURRIES  18  12  79 W15G23    30.13R WCI   3
LAKEVILLE      LGT SNOW  12  10  92 W18G24    30.15S WCI  -5
EDEN PRAIRIE   CLOUDY    16   9  74 W17G24    30.16R WCI   0
SOUTH ST PAUL  CLOUDY    17  11  75 W8G25     30.15S WCI   7
LAKE ELMO      FLURRIES  18  12  79 W13G22    30.14R WCI   4
$$
MNZ001>005-007-008-013>017-022>024-027-028-080800-
   Northwest Minnesota

CITY           SKY/WX    TMP DP  RH WIND       PRES   REMARKS
BEMIDJI        LGT SNOW  17  14  88 NW13      30.12R WCI   4
HALLOCK        LGT SNOW  19  18  93 N22G29    30.26R WCI   3
ROSEAU         LGT SNOW  19  16  86 NW17      30.18R WCI   4
WARROAD        LGT SNOW  19  16  86 NW14      30.17R WCI   6
THIEF RVR FALL FLURRIES  18  15  88 NW17      30.22R WCI   3
CROOKSTON      LGT SNOW  19  18  93 N23G30    30.26R WCI   2
FOSSTON        FLURRIES  16  14  93 NW12      30.18R WCI   3
DETROIT LAKES  LGT SNOW  19  18  93 NW21G26   30.18R WCI   3
MOORHEAD       MIX PCPN  16  12  86 NW25      30.26R WCI  -3
PARK RAPIDS    CLOUDY    18  11  74 NW14      30.11R WCI   4
$$
MNZ006-009>011-018-025>026-080800-
   North Central Minnesota

CITY           SKY/WX    TMP DP  RH WIND       PRES   REMARKS
BAUDETTE       LGT SNOW  21  16  81 N13G21    30.10R WCI   9
FLAG ISLAND    PTCLDY    21  18  86 N21       30.14R WCI   6
INTL FALLS     CLOUDY    20  16  84 NW10      30.05R WCI   9
WASKISH        CLOUDY    19  18  93 NW10      30.10R WCI   8
BIG FORK       CLOUDY    19  16  86 NW8       30.04R WCI   9
LONGVILLE      FLURRIES  21  16  79 NW10G18   30.07R WCI  10
GRAND RAPIDS   FLURRIES  21  17  84 NW17      30.04R WCI   7
CRANE LAKE     CLOUDY    21  18  86 N8        30.01R WCI  12
ORR            LGT SNOW  21  18  86 NW8       29.97R WCI  12
COOK           LGT SNOW  21  18  86 NW6       29.99R WCI  14
$$
MNZ012-019>021-037-080800-
   Northeast Minnesota

CITY           SKY/WX    TMP DP  RH WIND       PRES   REMARKS
DULUTH         LGT SNOW  21  18  88 NW13      29.95R FOG     WCI   9
ELY            FLURRIES  19  18  93 NW8G17    29.94R WCI   9
HIBBING        CLOUDY    20  16  84 NW17      29.99R WCI   5
EVELETH        MIX PCPN  22  18  83 NW10      29.98R WCI  12
DULUTH HARBOR  FLURRIES  25  21  86 CALM      30.01R
TWO HARBORS    CLOUDY    25  19  80 NW5       29.93R WCI  19
SILVER BAY     CLOUDY    25  19  80 NW8       29.90R WCI  16
GRAND MARAIS     N/A     27  18  69 N10G24    29.89R WCI  17
G MARAIS ARPRT LGT SNOW  19  14  79 NW10G21   29.83R WCI   8
$$
MNZ029>031-032-039>041-046>048-054>057-064-080800-
   West Central Minnesota

CITY           SKY/WX    TMP DP  RH WIND       PRES   REMARKS
FERGUS FALLS   LGT SNOW  14  12  92 NW17      30.27R WCI  -3
WHEATON        LGT SNOW  16  10  79 W23G31    30.31R WCI  -2
MORRIS         LGT SNOW  12  10  92 NW24G31   30.24R WCI  -8
ALEXANDRIA     LGT SNOW  12   9  87 NW18G28   30.17R FOG     WCI  -6
ELBOW LAKE     LGT SNOW  13  11  92 NW20G25   30.23R WCI  -5
WADENA         MIX PCPN  18  14  86 NW12G18   30.13R WCI   5
GLENWOOD       LGT SNOW  10   9  92 W17G25    30.18R WCI  -7
BENSON         FLURRIES  14   9  79 N22G32    30.23S WCI  -4
ORTONVILLE     FLURRIES  14   9  79 NW23G31   30.28R WCI  -5
MADISON        FLURRIES  16   9  73 NW21G28   30.30R WCI  -2
WILLMAR        LGT SNOW  16  10  79 NW22      30.22R WCI  -2
$$
MNZ033>034-036-042>043-049>051-058-059-080800-
   Central Minnesota

CITY           SKY/WX    TMP DP  RH WIND       PRES   REMARKS
ST CLOUD       LGT SNOW  15  11  83 W14       30.13S FOG     WCI   0
PAYNESVILLE    CLOUDY    14  10  85 W17G26    30.18R WCI  -3
AITKIN         MIX PCPN  21  16  79 W6        30.04R WCI  14
PINE RIVER     FLURRIES  19  16  86 NW10      30.11R WCI   8
BRAINERD       CLOUDY    19  15  84 W12       30.08R WCI   7
STAPLES        CLOUDY    16  12  86 NW15      30.11R WCI   1
LONG PRAIRIE   CLOUDY    14  10  85 W16G25    30.14R WCI  -2
LITTLE FALLS   CLOUDY    18  12  79 W10       30.12R WCI   6
LITCHFIELD     CLOUDY    16  10  79 W15G24    30.18R WCI   1
BUFFALO        LGT SNOW  16  11  80 W13G21    30.16S WCI   2
MAPLE LAKE     CLOUDY    16  12  84 W13G18    30.16S WCI   3
HUTCHINSON     CLOUDY    15  11  83 W24       30.19S WCI  -4
$$
MNZ037-044-045-052-053-080800-
   East Central Minnesota

CITY           SKY/WX    TMP DP  RH WIND       PRES   REMARKS
PRINCETON      PTCLDY    18  12  79 W10       30.11R WCI   6
MORA           FLURRIES  18  12  79 W9        30.09R WCI   6
CAMBRIDGE      LGT SNOW  18  10  73 W12       30.09S WCI   5
RUSH CITY      CLOUDY    18  12  79 W12G22    30.08S WCI   5
MOOSE LAKE     LGT SNOW  21  18  86 W8        30.01R WCI  12
HINCKLEY       LGT SNOW  19  16  86 CALM      30.05S
CLOQUET        LGT SNOW  19  18  93 W9        29.98R WCI   9
MCGREGOR       CLOUDY    21  19  93 W7        30.03R WCI  13
$$
MNZ071>073-080-081-089-090-097-098-080800-
   Southwest Minnesota

CITY           SKY/WX    TMP DP  RH WIND       PRES   REMARKS
MONTEVIDEO     FLURRIES  14   9  79 N15G24    30.28S WCI  -1
GRANITE FALLS  LGT SNOW  15  11  85 W25       30.29S WCI  -4
CANBY          CLOUDY    13   7  76 NW23      30.31S WCI  -6
MARSHALL       FLURRIES  12   6  77 NW23G29   30.29R WCI  -7
REDWOOD FALLS  LGT SNOW  14   8  77 W20G28    30.26R WCI  -3
OLIVIA         LGT SNOW  16  10  79 NW21G30   30.23R WCI  -2
PIPESTONE      LGT SNOW   9   3  78 NW22G30   30.30S WCI -11
WINDOM         LGT SNOW  10   5  79 W23       30.26R WCI -10
WORTHINGTON    PTCLDY     7   2  80 W24G31    30.29R WCI -14
JACKSON        PTCLDY     9   3  78 W24       30.27R WCI -12
TRACY          LGT SNOW  12   8  83 W20G26    30.28S WCI  -6
SLAYTON        MOCLDY     8   3  81 W25G31    30.28R WCI -14
$$
MNZ065>067-074>077-082>085-091>093-080800-
   South Central Minnesota

CITY           SKY/WX    TMP DP  RH WIND       PRES   REMARKS
MANKATO        FLURRIES  13   8  81 W20       30.22R WCI  -5
NEW ULM        FLURRIES  12   7  79 W26       30.24S WCI  -8
ST JAMES       CLOUDY    12   7  79 W22G29    30.26S WCI  -7
FAIRMONT       MOCLDY    10   5  80 W24G31    30.26S WCI -10
GLENCOE        LGT SNOW  16  13  88 W23G30    30.18S WCI  -3
FARIBAULT      LGT SNOW  14  10  85 W17G25    30.18R WCI  -3
OWATONNA       LGT SNOW  12   9  85 W16G24    30.19R WCI  -4
WASECA         LGT SNOW  14   9  79 W17G23    30.22R WCI  -3
ALBERT LEA     CLOUDY    16   9  73 W14G24    30.20S WCI   1
$$
MNZ078>079-086>088-094>096-080800-
   Southeast Minnesota

CITY           SKY/WX    TMP DP  RH WIND       PRES   REMARKS
ROCHESTER      FLURRIES  13   7  77 W22       30.14S WCI  -6
RED WING       LGT SNOW  18  10  73 W15G24    30.14S WCI   3
STANTON        LGT SNOW  16  10  77 W16G22    30.16R WCI   1
DODGE CENTER   LGT SNOW  12   9  85 W15G25    30.15S WCI  -4
WINONA         FLURRIES  18  10  73 W14G24    30.17S WCI   4
AUSTIN         MOCLDY    10   5  79 W17G26    30.18S WCI  -7
PRESTON        CLOUDY    11   5  77 W20G28    30.16R WCI  -8
$$
ABBREVIATIONS USED IN REMARKS
   TC - TEMPERATURES IN CELSIUS
  WCI - WIND CHILL INDEX
   HX - HEAT INDEX
  VSB - VISIBILITY
$$



USA.gov is the U.S. government's official web portal to all federal, state and local government web resources and services.